FW5767 Weather Reports


time (UTC)temp
C
wind
direction
speed
KPH
gust
KPH
rain 1hr
cm
rain 24hr
cm
rain mn
cm
humidity
%
barometer
mb
20210723154920 20 51 9.7 20.9 0.00 0.00 0.00 68 1016.4
20210723154420 21 15 8.0 16.1 0.00 0.00 0.00 69 1016.5
20210723153919 21 38 6.4 14.5 0.00 0.00 0.00 68 1016.4
20210723153421 21 45 6.4 14.5 0.00 0.00 0.00 68 1016.4
20210723152919 21 55 6.4 17.7 0.00 0.00 0.00 67 1016.5
20210723152419 21 20 8.0 19.3 0.00 0.00 0.00 68 1016.5
20210723151921 21 44 8.0 19.3 0.00 0.00 0.00 67 1016.6
20210723151421 21 71 11.3 19.3 0.00 0.00 0.00 68 1016.6
20210723150920 21 28 11.3 19.3 0.00 0.00 0.00 67 1016.5
20210723150421 21 26 9.7 19.3 0.00 0.00 0.00 68 1016.7
20210723145918 21 28 9.7 19.3 0.00 0.00 0.00 66 1016.7
20210723145420 21 35 9.7 19.3 0.00 0.00 0.00 67 1016.8
20210723144917 21 52 6.4 16.1 0.00 0.00 0.00 67 1017.0
20210723144414 21 32 4.8 16.1 0.00 0.00 0.00 68 1017.1
20210723143914 21 72 4.8 12.9 0.00 0.00 0.00 68 1017.1
20210723143413 21 80 4.8 12.9 0.00 0.00 0.00 67 1017.2
20210723142914 21 16 6.4 12.9 0.00 0.00 0.00 68 1017.2
20210723142415 21 78 8.0 17.7 0.00 0.00 0.00 65 1017.2
20210723141915 21 63 6.4 17.7 0.00 0.00 0.00 65 1017.3
20210723141413 22 24 4.8 11.3 0.00 0.00 0.00 66 1017.3
20210723140912 21 16 4.8 16.1 0.00 0.00 0.00 65 1017.3
20210723140411 21 69 4.8 16.1 0.00 0.00 0.00 66 1017.4
20210723135912 21 17 8.0 16.1 0.00 0.00 0.00 65 1017.4
20210723135414 21 42 9.7 16.1 0.00 0.00 0.00 65 1017.4
20210723134911 22 35 6.4 16.1 0.00 0.00 0.00 64 1017.4
20210723134411 22 16 6.4 14.5 0.00 0.00 0.00 64 1017.4
20210723133911 22 37 6.4 14.5 0.00 0.00 0.00 65 1017.3
20210723133412 22 103 6.4 14.5 0.00 0.00 0.00 64 1017.4
20210723132911 22 72 4.8 16.1 0.00 0.00 0.00 65 1017.4
20210723132412 22 119 6.4 16.1 0.00 0.00 0.00 65 1017.5
20210723131911 22 44 6.4 14.5 0.00 0.00 0.00 64 1017.5
20210723131409 22 70 6.4 16.1 0.00 0.00 0.00 65 1017.6
20210723130911 22 90 6.4 16.1 0.00 0.00 0.00 69 1017.5
20210723130410 21 84 4.8 12.9 0.00 0.00 0.00 70 1017.5
20210723125911 21 115 6.4 11.3 0.00 0.00 0.00 69 1017.6
20210723125406 21 119 6.4 16.1 0.00 0.00 0.00 66 1017.6
20210723124909 21 78 4.8 16.1 0.00 0.00 0.00 67 1017.6
20210723124405 21 69 4.8 11.3 0.00 0.00 0.00 68 1017.7
20210723123905 21 46 3.2 11.3 0.00 0.00 0.00 70 1017.7
20210723123407 20 77 4.8 9.7 0.00 0.00 0.00 69 1017.9
20210723122908 20 40 4.8 8.0 0.00 0.00 0.00 74 1017.9
20210723122406 20 67 3.2 12.9 0.00 0.00 0.00 74 1018.0
20210723121907 19 95 4.8 12.9 0.00 0.00 0.00 74 1018.2
20210723121403 19 84 4.8 12.9 0.00 0.00 0.00 74 1018.2
20210723120905 19 57 4.8 12.9 0.00 0.00 0.00 74 1018.4
20210723120403 19 99 4.8 11.3 0.00 0.00 0.00 74 1018.5
20210723115900 19 50 6.4 12.9 0.00 0.00 0.00 74 1018.5
20210723115359 19 27 4.8 12.9 0.00 0.00 0.00 74 1018.7
20210723114859 19 63 4.8 8.0 0.00 0.00 0.00 73 1018.7
20210723114359 19 55 4.8 9.7 0.00 0.00 0.00 74 1018.7
20210723113859 18 72 4.8 9.7 0.00 0.00 0.00 72 1018.8
20210723113359 19 32 3.2 11.3 0.00 0.00 0.00 75 1018.9
20210723112900 18 87 3.2 11.3 0.00 0.00 0.00 73 1018.9
20210723112400 18 62 3.2 9.7 0.00 0.00 0.00 72 1018.9
20210723111901 19 102 3.2 9.7 0.00 0.00 0.00 74 1018.9
20210723111358 18 65 3.2 9.7 0.00 0.00 0.00 74 1019.0
20210723110901 19 67 4.8 9.7 0.00 0.00 0.00 73 1019.1
20210723110358 19 74 4.8 12.9 0.00 0.00 0.00 74 1019.1
20210723105856 18 53 4.8 12.9 0.00 0.00 0.00 73 1019.1
20210723105359 19 65 4.8 12.9 0.00 0.00 0.00 74 1019.0
20210723104859 18 42 6.4 12.9 0.00 0.00 0.00 74 1019.1
20210723104353 18 41 4.8 12.9 0.00 0.00 0.00 75 1019.0
20210723103854 18 67 6.4 12.9 0.00 0.00 0.00 74 1019.1
20210723103354 18 22 6.4 12.9 0.00 0.00 0.00 75 1019.1
20210723102855 18 37 6.4 14.5 0.00 0.00 0.00 75 1019.2
20210723102351 18 37 6.4 14.5 0.00 0.00 0.00 74 1019.2
20210723101852 18 11 8.0 14.5 0.00 0.00 0.00 74 1019.3
20210723101352 18 34 8.0 14.5 0.00 0.00 0.00 74 1019.2
20210723100854 18 49 9.7 14.5 0.00 0.00 0.00 73 1019.3
20210723100351 18 28 9.7 14.5 0.00 0.00 0.00 73 1019.4
20210723095851 18 24 9.7 14.5 0.00 0.00 0.00 75 1019.4
20210723095353 18 28 9.7 14.5 0.00 0.00 0.00 75 1019.5
20210723094851 18 36 8.0 14.5 0.00 0.00 0.00 75 1019.6
20210723094353 18 41 6.4 12.9 0.00 0.00 0.00 75 1019.6
20210723093855 18 28 4.8 12.9 0.00 0.00 0.00 75 1019.7
20210723093351 18 317 4.8 9.7 0.00 0.00 0.00 75 1019.7
20210723092853 18 344 4.8 9.7 0.00 0.00 0.00 75 1019.7
20210723092349 18 16 4.8 9.7 0.00 0.00 0.00 75 1019.8
20210723091849 18 38 4.8 8.0 0.00 0.00 0.00 75 1019.8
20210723091349 18 28 4.8 12.9 0.00 0.00 0.00 75 1019.9
20210723090851 18 26 4.8 12.9 0.00 0.00 0.00 76 1020.0
20210723090353 18 350 4.8 11.3 0.00 0.00 0.00 75 1019.9
20210723085850 18 35 6.4 11.3 0.00 0.00 0.00 75 1020.0
20210723085349 18 30 6.4 11.3 0.00 0.00 0.00 76 1020.0
20210723084851 18 32 8.0 11.3 0.00 0.00 0.00 76 1019.9
20210723084349 18 30 6.4 11.3 0.00 0.00 0.00 76 1019.9
20210723083849 18 40 6.4 11.3 0.00 0.00 0.00 76 1020.0
20210723083349 18 39 6.4 14.5 0.00 0.00 0.00 76 1020.0
20210723082848 17 24 6.4 14.5 0.00 0.00 0.00 76 1020.0
20210723082348 17 28 6.4 14.5 0.00 0.00 0.00 75 1020.1
20210723081847 17 21 6.4 14.5 0.00 0.00 0.00 75 1020.0
20210723081344 17 13 6.4 12.9 0.00 0.00 0.00 75 1019.9
20210723080843 17 30 6.4 12.9 0.00 0.00 0.00 75 1020.0
20210723080345 17 5 6.4 12.9 0.00 0.00 0.00 75 1020.0
20210723075844 17 46 6.4 12.9 0.00 0.00 0.00 75 1019.9
20210723075345 17 15 8.0 14.5 0.00 0.00 0.00 75 1019.9
20210723074844 17 30 9.7 16.1 0.00 0.00 0.00 76 1019.9
20210723074345 17 41 11.3 16.1 0.00 0.00 0.00 75 1019.9
20210723073844 17 38 11.3 16.1 0.00 0.00 0.00 75 1019.9
20210723073343 17 24 11.3 19.3 0.00 0.00 0.00 75 1019.9
20210723072840 17 22 9.7 19.3 0.00 0.00 0.00 75 1019.9
20210723072342 17 27 9.7 19.3 0.00 0.00 0.00 75 1019.8
20210723071843 17 5 11.3 19.3 0.00 0.00 0.00 75 1019.8
20210723071341 17 48 11.3 20.9 0.00 0.00 0.00 76 1019.7
20210723070842 17 25 11.3 20.9 0.00 0.00 0.00 76 1019.8
20210723070342 17 32 12.9 20.9 0.00 0.00 0.00 76 1019.7
20210723065842 17 29 12.9 20.9 0.00 0.00 0.00 76 1019.8
20210723065344 17 25 11.3 17.7 0.00 0.00 0.00 78 1019.7
20210723064840 17 18 12.9 17.7 0.00 0.00 0.00 77 1019.8
20210723064341 17 32 11.3 20.9 0.00 0.00 0.00 76 1019.8
20210723063841 17 19 11.3 19.3 0.00 0.00 0.00 76 1019.9
20210723063344 17 15 11.3 20.9 0.00 0.00 0.00 77 1019.8
20210723062840 17 28 11.3 20.9 0.00 0.00 0.00 77 1019.9
20210723062341 17 36 11.3 20.9 0.00 0.00 0.00 77 1019.9
20210723061841 16 26 12.9 20.9 0.00 0.00 0.00 77 1019.9
20210723061342 16 42 14.5 20.9 0.00 0.00 0.00 77 1019.9
20210723060842 16 19 12.9 20.9 0.00 0.00 0.00 78 1019.9
20210723060341 16 33 12.9 20.9 0.00 0.00 0.00 78 1020.0
20210723055841 16 30 11.3 19.3 0.00 0.00 0.00 79 1020.0
20210723055341 16 22 9.7 17.7 0.00 0.00 0.00 79 1020.0
20210723054842 16 31 11.3 19.3 0.00 0.00 0.00 80 1020.0
20210723054340 16 42 9.7 17.7 0.00 0.00 0.00 80 1020.0
20210723053840 16 43 11.3 17.7 0.00 0.00 0.00 81 1020.1
20210723053339 16 26 11.3 17.7 0.00 0.00 0.00 81 1020.1
20210723052839 16 38 11.3 17.7 0.00 0.00 0.00 81 1020.0
20210723052339 16 15 11.3 16.1 0.00 0.00 0.00 81 1020.0
20210723051840 16 23 11.3 17.7 0.00 0.00 0.00 81 1020.1
20210723051340 16 26 11.3 19.3 0.00 0.00 0.00 81 1020.0
20210723050840 16 28 9.7 17.7 0.00 0.00 0.00 81 1020.1
20210723050340 16 24 8.0 17.7 0.00 0.00 0.00 81 1020.2
20210723045839 16 355 8.0 16.1 0.00 0.00 0.00 82 1020.1
20210723045340 16 32 8.0 16.1 0.00 0.00 0.00 82 1020.1
20210723044842 16 34 8.0 16.1 0.00 0.00 0.00 83 1020.0
20210723044337 16 32 8.0 14.5 0.00 0.00 0.00 83 1020.0
20210723043837 16 22 6.4 14.5 0.00 0.00 0.00 84 1020.1
20210723043338 16 13 8.0 16.1 0.00 0.00 0.00 84 1020.1
20210723042837 16 19 8.0 16.1 0.00 0.00 0.00 84 1020.2
20210723042338 16 350 4.8 16.1 0.00 0.00 0.00 85 1020.2
20210723041837 16 19 3.2 9.7 0.00 0.00 0.00 85 1020.1
20210723041338 16 5 3.2 9.7 0.00 0.00 0.00 85 1020.1
20210723040837 16 28 3.2 11.3 0.00 0.00 0.00 85 1020.1
20210723040337 16 24 1.6 11.3 0.00 0.00 0.00 85 1020.1
20210723035837 16 14 0.0 0.0 0.00 0.00 0.00 86 1020.1
20210723035336 16 13 0.0 0.0 0.00 0.00 0.00 86 1020.1
20210723034834 16 15 0.0 0.0 0.00 0.00 0.00 86 1020.2
20210723034337 16 15 0.0 0.0 0.00 0.00 0.00 86 1020.1
20210723033836 16 342 0.0 0.0 0.00 0.00 0.00 86 1020.1
20210723033335 16 300 0.0 0.0 0.00 0.00 0.00 86 1020.2
20210723032835 16 44 0.0 0.0 0.00 0.00 0.00 86 1020.3
20210723032333 16 44 0.0 0.0 0.00 0.00 0.00 86 1020.3
20210723031832 16 44 0.0 0.0 0.00 0.00 0.00 86 1020.4
20210723031331 16 44 0.0 0.0 0.00 0.00 0.00 86 1020.5
20210723030829 15 44 0.0 0.0 0.00 0.00 0.00 86 1020.4
20210723030330 15 44 0.0 0.0 0.00 0.00 0.00 86 1020.6
20210723025831 15 44 0.0 0.0 0.00 0.00 0.00 86 1020.6
20210723025330 15 44 0.0 0.0 0.00 0.00 0.00 86 1020.7
20210723024829 15 44 0.0 0.0 0.00 0.00 0.00 86 1020.6
20210723024331 15 44 0.0 0.0 0.00 0.00 0.00 87 1020.7
20210723023830 15 44 0.0 0.0 0.00 0.00 0.00 87 1020.6
20210723023329 15 44 0.0 0.0 0.00 0.00 0.00 87 1020.7
20210723022830 15 44 0.0 0.0 0.00 0.00 0.00 87 1020.7
20210723022331 15 44 0.0 0.0 0.00 0.00 0.00 87 1020.8
20210723021829 15 44 0.0 0.0 0.00 0.00 0.00 87 1020.9
20210723021328 15 44 0.0 0.0 0.00 0.00 0.00 87 1020.8
20210723020832 15 44 0.0 0.0 0.00 0.00 0.00 87 1020.8
20210723020328 15 44 0.0 0.0 0.00 0.00 0.00 87 1020.9
20210723015831 15 44 0.0 0.0 0.00 0.00 0.00 88 1020.9
20210723015330 15 44 0.0 0.0 0.00 0.00 0.00 88 1020.9
20210723014829 15 71 0.0 0.0 0.00 0.00 0.00 88 1020.9
20210723014330 15 71 0.0 0.0 0.00 0.00 0.00 88 1021.0
20210723013828 15 71 0.0 0.0 0.00 0.00 0.00 88 1021.0
20210723013328 15 71 0.0 0.0 0.00 0.00 0.00 88 1021.0
20210723012826 15 71 0.0 0.0 0.00 0.00 0.00 88 1020.9
20210723012326 15 71 0.0 0.0 0.00 0.00 0.00 88 1020.9
20210723011827 15 71 0.0 0.0 0.00 0.00 0.00 89 1020.9
20210723011327 15 71 0.0 0.0 0.00 0.00 0.00 89 1021.0
20210723010824 14 71 0.0 0.0 0.00 0.00 0.00 89 1020.9
20210723010322 14 71 0.0 0.0 0.00 0.00 0.00 89 1021.0
20210723005826 14 71 0.0 0.0 0.00 0.00 0.00 89 1021.0
20210723005320 14 71 0.0 0.0 0.00 0.00 0.00 89 1021.0
20210723004822 14 71 0.0 4.8 0.00 0.00 0.00 89 1021.1
20210723004320 14 71 0.0 3.2 0.00 0.00 0.00 89 1021.1
20210723003820 13 71 1.6 4.8 0.00 0.00 0.00 89 1021.1
20210723003321 13 71 0.0 4.8 0.00 0.00 0.00 89 1021.2
20210723002822 13 71 1.6 4.8 0.00 0.00 0.00 89 1021.2
20210723002320 13 71 3.2 4.8 0.00 0.00 0.00 89 1021.2
20210723001824 13 47 3.2 8.0 0.00 0.00 0.00 89 1021.1
20210723001321 13 46 1.6 8.0 0.00 0.00 0.00 89 1021.2
20210723000820 13 44 0.0 4.8 0.00 0.00 0.00 88 1021.2
20210723000320 13 17 1.6 4.8 0.00 0.00 0.00 88 1021.2
20210722235823 13 12 1.6 4.8 0.00 0.00 0.00 88 1021.3
20210722235320 13 12 3.2 4.8 0.00 0.00 0.00 88 1021.3
20210722234818 13 0 1.6 4.8 0.00 0.00 0.00 87 1021.4
20210722234318 13 5 1.6 4.8 0.00 0.00 0.00 87 1021.4
20210722233824 13 355 1.6 4.8 0.00 0.00 0.00 87 1021.5
20210722233320 13 355 1.6 4.8 0.00 0.00 0.00 87 1021.5
20210722232816 13 350 1.6 4.8 0.00 0.00 0.00 87 1021.5
20210722232316 13 5 1.6 4.8 0.00 0.00 0.00 87 1021.4
20210722231816 14 5 1.6 4.8 0.00 0.00 0.00 87 1021.4
20210722231317 14 5 1.6 4.8 0.00 0.00 0.00 87 1021.3
20210722230814 14 5 1.6 3.2 0.00 0.00 0.00 87 1021.3
20210722230316 14 5 1.6 3.2 0.00 0.00 0.00 87 1021.4
20210722225813 14 5 1.6 4.8 0.00 0.00 0.00 87 1021.4
20210722225314 14 5 1.6 4.8 0.00 0.00 0.00 87 1021.4
20210722224810 14 5 1.6 6.4 0.00 0.00 0.00 86 1021.3
20210722224310 14 5 1.6 6.4 0.00 0.00 0.00 87 1021.3
20210722223810 14 9 1.6 4.8 0.00 0.00 0.00 86 1021.4
20210722223310 14 9 1.6 4.8 0.00 0.00 0.00 86 1021.4
20210722222810 14 27 1.6 4.8 0.00 0.00 0.00 86 1021.4
20210722222307 14 27 1.6 4.8 0.00 0.00 0.00 85 1021.4
20210722221809 14 27 1.6 4.8 0.00 0.00 0.00 85 1021.4
20210722221307 14 27 1.6 4.8 0.00 0.00 0.00 85 1021.4
20210722220811 14 27 1.6 4.8 0.00 0.00 0.00 85 1021.5
20210722220306 14 27 3.2 4.8 0.00 0.00 0.00 84 1021.4
20210722215806 14 27 3.2 4.8 0.00 0.00 0.00 84 1021.5
20210722215306 15 27 3.2 4.8 0.00 0.00 0.00 85 1021.6
20210722214806 15 27 3.2 4.8 0.00 0.00 0.00 85 1021.5
20210722214306 15 27 3.2 4.8 0.00 0.00 0.00 84 1021.5
20210722213807 15 0 1.6 4.8 0.00 0.00 0.00 84 1021.6
20210722213304 15 0 0.0 4.8 0.00 0.00 0.00 84 1021.6
20210722212805 15 0 1.6 8.0 0.00 0.00 0.00 84 1021.6
20210722212305 15 0 3.2 6.4 0.00 0.00 0.00 83 1021.6
20210722211801 15 36 4.8 8.0 0.00 0.00 0.00 84 1021.6
20210722211304 15 30 6.4 8.0 0.00 0.00 0.00 84 1021.6
20210722210800 15 40 6.4 8.0 0.00 0.00 0.00 84 1021.5
20210722210302 15 31 6.4 8.0 0.00 0.00 0.00 84 1021.6
20210722205758 15 30 4.8 8.0 0.00 0.00 0.00 84 1021.7
20210722205300 15 24 4.8 8.0 0.00 0.00 0.00 83 1021.6
20210722204759 15 24 4.8 8.0 0.00 0.00 0.00 83 1021.7
20210722204258 15 24 6.4 8.0 0.00 0.00 0.00 83 1021.7
20210722203759 15 25 6.4 8.0 0.00 0.00 0.00 82 1021.8
20210722203258 15 36 4.8 8.0 0.00 0.00 0.00 82 1021.7
20210722202758 15 37 4.8 8.0 0.00 0.00 0.00 81 1021.8
20210722202259 15 32 4.8 8.0 0.00 0.00 0.00 81 1021.7
20210722201757 15 26 6.4 12.9 0.00 0.00 0.00 81 1021.7
20210722201256 16 27 8.0 12.9 0.00 0.00 0.00 80 1021.8
20210722200756 16 33 8.0 12.9 0.00 0.00 0.00 80 1021.7
20210722200254 16 28 8.0 12.9 0.00 0.00 0.00 80 1021.7
20210722195756 16 33 6.4 9.7 0.00 0.00 0.00 80 1021.8
20210722195255 16 26 6.4 9.7 0.00 0.00 0.00 80 1021.7
20210722194755 16 30 4.8 9.7 0.00 0.00 0.00 79 1021.7
20210722194252 16 37 6.4 16.1 0.00 0.00 0.00 79 1021.7
20210722193755 17 22 8.0 16.1 0.00 0.00 0.00 78 1021.6
20210722193250 17 24 9.7 16.1 0.00 0.00 0.00 78 1021.7
20210722192751 17 30 9.7 16.1 0.00 0.00 0.00 77 1021.7
20210722192248 17 26 9.7 16.1 0.00 0.00 0.00 77 1021.7
20210722191748 17 36 11.3 16.1 0.00 0.00 0.00 76 1021.6
20210722191251 18 12 9.7 16.1 0.00 0.00 0.00 76 1021.6
20210722190751 18 41 9.7 14.5 0.00 0.00 0.00 75 1021.6
20210722190249 18 28 11.3 14.5 0.00 0.00 0.00 74 1021.6
20210722185750 18 26 9.7 14.5 0.00 0.00 0.00 74 1021.6
20210722185251 18 32 9.7 17.7 0.00 0.00 0.00 74 1021.6
20210722184750 18 26 9.7 17.7 0.00 0.00 0.00 74 1021.6
20210722184252 19 32 9.7 17.7 0.00 0.00 0.00 73 1021.6
20210722183748 19 44 11.3 17.7 0.00 0.00 0.00 73 1021.6
20210722183249 19 46 11.3 17.7 0.00 0.00 0.00 73 1021.5
20210722182746 19 32 9.7 17.7 0.00 0.00 0.00 72 1021.5
20210722182246 20 31 8.0 16.1 0.00 0.00 0.00 71 1021.6
20210722181746 20 10 9.7 16.1 0.00 0.00 0.00 71 1021.5
20210722181247 20 28 9.7 16.1 0.00 0.00 0.00 71 1021.5
20210722180747 20 25 8.0 17.7 0.00 0.00 0.00 71 1021.6
20210722180245 20 337 8.0 17.7 0.00 0.00 0.00 70 1021.5
20210722175743 20 41 9.7 19.3 0.00 0.00 0.00 70 1021.5
20210722175245 20 47 8.0 19.3 0.00 0.00 0.00 67 1021.4
20210722174743 20 51 6.4 14.5 0.00 0.00 0.00 71 1021.5
20210722174245 20 332 8.0 16.1 0.00 0.00 0.00 71 1021.5
20210722173742 20 25 8.0 16.1 0.00 0.00 0.00 68 1021.5
20210722173241 20 42 8.0 17.7 0.00 0.00 0.00 69 1021.5
20210722172742 20 10 11.3 20.9 0.00 0.00 0.00 68 1021.5
20210722172243 21 351 11.3 20.9 0.00 0.00 0.00 67 1021.5
20210722171743 21 32 11.3 17.7 0.00 0.00 0.00 65 1021.5
20210722171244 21 32 9.7 17.7 0.00 0.00 0.00 65 1021.6
20210722170742 21 26 9.7 16.1 0.00 0.00 0.00 65 1021.6
20210722170242 21 16 9.7 16.1 0.00 0.00 0.00 63 1021.7
20210722165744 21 26 9.7 19.3 0.00 0.00 0.00 65 1021.6
20210722165243 21 28 8.0 19.3 0.00 0.00 0.00 63 1021.7
20210722164744 21 20 8.0 17.7 0.00 0.00 0.00 68 1021.7
20210722164242 21 5 9.7 19.3 0.00 0.00 0.00 65 1021.6
20210722163742 22 25 8.0 19.3 0.00 0.00 0.00 63 1021.8
20210722163240 22 355 8.0 14.5 0.00 0.00 0.00 65 1021.8
20210722162738 22 31 9.7 20.9 0.00 0.00 0.00 65 1021.9
20210722162240 22 34 9.7 20.9 0.00 0.00 0.00 63 1021.8
20210722161739 22 17 11.3 19.3 0.00 0.00 0.00 63 1021.9
20210722161241 22 19 11.3 19.3 0.00 0.00 0.00 61 1022.0
20210722160738 22 23 11.3 19.3 0.00 0.00 0.00 62 1021.9
20210722160238 22 25 9.7 19.3 0.00 0.00 0.00 63 1022.0
20210722155737 22 37 11.3 20.9 0.00 0.00 0.00 63 1022.0